Location: Madrid
(40.4000°N, 3.6830°W)
Time: 20:41:45
(UTC+02:00)

ISS - Pass Details

Date: 23 September 2020
Orbit: 419 x 421 km, 51.6° (Epoch: 30 September)

Event Time Altitude Azimuth Distance (km) Brightness Sun altitude
Rises 20:51:01 0° 268° (W) 2,361 2.2 -8.7°
Reaches altitude 10° 20:53:26 10° 284° (WNW) 1,499 0.7 -9.2°
Maximum altitude 20:56:08 22° 338° (NNW) 967 -1.6 -9.7°
Drops below altitude 10° 20:58:52 10° 32° (NNE) 1,502 -1.2 -10.2°
Enters shadow 21:00:23 - 43° (NE) 2,035 -0.6 -10.5°
